Weather History for New Bedford, MA

Change the Weather History Date:

Thursday, December 20, 2012

  Actual Average Record
Temperature  
Mean Temperature 38 °F -  
Max Temperature 43 °F 40 °F 59 °F (2002)
Min Temperature 32 °F 27 °F 1 °F (1955)
Degree Days  
Heating Degree Days 28    
Moisture  
Dew Point 31 °F    
Average Humidity 79    
Maximum Humidity 93    
Minimum Humidity 62    
Precipitation  
Precipitation 0.00 in - - ()
Sea Level Pressure  
Sea Level Pressure 30.12 in    
Wind  
Wind Speed 4 mph (North)    
Max Wind Speed 10 mph    
Max Gust Speed -    
Visibility 10 miles    
Events      
Averages and records for this station are not official NWS values.
T = Trace of Precipitation, MM = Missing Value Source: NWS Daily Summary

Daily Weather History Graph

Daily Weather History Graph

Search for Another Location

Airport:

Trip Planner

Search our weather history database for the weather conditions in past years. The results will help you decide how hot, cold, wet, or windy it might be!

Date:

Astronomy

Dec. 20, 2012 Rise Set
Actual Time 7:07 AM EST 4:16 PM EST
Civil Twilight 6:35 AM EST 4:47 PM EST
Nautical Twilight 6:00 AM EST 5:22 PM EST
Astronomical Twilight 5:26 AM EST 5:56 PM EST
Moon 11:36 AM EST (12/20) No Moon Set
Length of Visible Light 10h 12m
Length of Day
9h 09m
First Quarter, 55% of the Moon is Illuminated
Dec 20
First Quarter
Dec 28
Full
Jan 4
Last Quarter
Jan 11
New
Jan 18
First Quarter

Hourly Weather History & Observations

Time (EST) Temp. Windchill Dew Point Humidity Pressure Visibility Wind Dir Wind Speed Gust Speed Precip Events Conditions
12:53 AM 37.0 °F 33.3 °F 28.0 °F 70% 30.02 in 10.0 mi Variable 4.6 mph - N/A   Overcast
1:53 AM 37.0 °F 34.5 °F 28.0 °F 70% 30.05 in 10.0 mi NW 3.5 mph - N/A   Overcast
2:53 AM 35.1 °F 32.2 °F 28.0 °F 76% 30.07 in 10.0 mi NW 3.5 mph - N/A   Overcast
3:53 AM 34.0 °F 29.8 °F 28.0 °F 79% 30.09 in 10.0 mi NW 4.6 mph - N/A   Clear
4:53 AM 33.1 °F - 28.0 °F 82% 30.09 in 10.0 mi Calm Calm - N/A   Clear
5:53 AM 32.0 °F 28.7 °F 28.0 °F 85% 30.11 in 10.0 mi NW 3.5 mph - N/A   Clear
6:53 AM 32.0 °F 27.5 °F 27.0 °F 82% 30.14 in 10.0 mi NW 4.6 mph - N/A   Clear
7:53 AM 34.0 °F 28.8 °F 28.0 °F 79% 30.17 in 10.0 mi WNW 5.8 mph - N/A   Clear
8:31 AM 35.6 °F 31.7 °F 28.4 °F 75% 30.17 in 10.0 mi NW 4.6 mph - N/A   Mostly Cloudy
8:53 AM 36.0 °F 33.3 °F 28.9 °F 76% 30.18 in 10.0 mi NW 3.5 mph - N/A   Overcast
9:25 AM 37.4 °F 32.8 °F 28.4 °F 70% 30.20 in 10.0 mi WNW 5.8 mph - N/A   Overcast
9:53 AM 37.9 °F - 28.9 °F 70% 30.19 in 10.0 mi Calm Calm - N/A   Scattered Clouds
10:53 AM 43.0 °F 37.2 °F 30.9 °F 62% 30.18 in 10.0 mi NNE 10.4 mph - N/A   Partly Cloudy
11:53 AM 43.0 °F 37.7 °F 32.0 °F 65% 30.17 in 10.0 mi North 9.2 mph - N/A   Scattered Clouds
12:53 PM 42.1 °F 37.1 °F 30.9 °F 65% 30.15 in 10.0 mi NE 8.1 mph - N/A   Mostly Cloudy
1:53 PM 42.1 °F 36.6 °F 32.0 °F 67% 30.14 in 10.0 mi NE 9.2 mph - N/A   Mostly Cloudy
2:53 PM 41.0 °F 36.4 °F 32.0 °F 70% 30.14 in 10.0 mi NE 6.9 mph - N/A   Mostly Cloudy
3:53 PM 39.0 °F 32.8 °F 32.0 °F 76% 30.12 in 10.0 mi NE 9.2 mph - N/A   Mostly Cloudy
4:53 PM 37.9 °F 35.5 °F 33.1 °F 83% 30.14 in 10.0 mi Variable 3.5 mph - N/A   Scattered Clouds
5:53 PM 37.0 °F 34.5 °F 33.1 °F 86% 30.12 in 10.0 mi NNE 3.5 mph - N/A   Scattered Clouds
6:42 PM 35.6 °F - 33.8 °F 93% 30.13 in 10.0 mi Calm Calm - N/A   Mostly Cloudy
6:53 PM 36.0 °F - 33.1 °F 89% 30.13 in 10.0 mi Calm Calm - N/A   Overcast
7:49 PM 35.6 °F 32.8 °F 33.8 °F 93% 30.11 in 10.0 mi ENE 3.5 mph - N/A   Scattered Clouds
7:53 PM 36.0 °F 33.3 °F 33.1 °F 89% 30.11 in 10.0 mi ENE 3.5 mph - N/A   Mostly Cloudy
8:53 PM 37.0 °F - 33.1 °F 86% 30.09 in 10.0 mi Calm Calm - N/A   Mostly Cloudy
9:53 PM 37.0 °F - 34.0 °F 89% 30.09 in 10.0 mi Calm Calm - N/A   Overcast
10:53 PM 37.9 °F - 34.0 °F 86% 30.05 in 6.0 mi Calm Calm - N/A   Overcast
11:12 PM 37.4 °F - 33.8 °F 87% 30.04 in 10.0 mi Calm Calm - N/A   Mostly Cloudy
11:53 PM 37.0 °F - 35.1 °F 93% 30.04 in 10.0 mi Calm Calm - N/A   Overcast